TimeCDT,TemperatureF,Dew PointF,Humidity,Sea Level PressureIn,VisibilityMPH,Wind Direction,Wind SpeedMPH,Gust SpeedMPH,PrecipitationIn,Events,Conditions,WindDirDegrees,DateUTC
12:15 AM,44.6,37.4,76,30.18,10.0,NNW,3.5,-,N/A,,Clear,340,2012-10-28 05:15:00
12:35 AM,44.6,37.4,76,30.18,10.0,NNW,3.5,-,N/A,,Clear,330,2012-10-28 05:35:00
12:55 AM,44.6,37.4,76,30.18,10.0,NNW,3.5,-,N/A,,Clear,340,2012-10-28 05:55:00
1:15 AM,44.6,37.4,76,30.18,10.0,NNW,3.5,-,N/A,,Clear,330,2012-10-28 06:15:00
1:35 AM,44.6,37.4,76,30.18,10.0,NNW,4.6,-,N/A,,Clear,330,2012-10-28 06:35:00
1:55 AM,42.8,37.4,81,30.18,10.0,NNW,3.5,-,N/A,,Clear,330,2012-10-28 06:55:00
2:15 AM,42.8,37.4,81,30.18,10.0,NW,3.5,-,N/A,,Clear,320,2012-10-28 07:15:00
2:35 AM,42.8,37.4,81,30.18,10.0,NNW,3.5,-,N/A,,Clear,330,2012-10-28 07:35:00
2:55 AM,42.8,37.4,81,30.18,10.0,NNW,3.5,-,N/A,,Clear,330,2012-10-28 07:55:00
3:15 AM,42.8,37.4,81,30.18,10.0,NNW,3.5,-,N/A,,Clear,340,2012-10-28 08:15:00
3:35 AM,42.8,37.4,81,30.18,10.0,NNW,4.6,-,N/A,,Clear,330,2012-10-28 08:35:00
3:55 AM,41.0,37.4,87,30.17,10.0,NNW,3.5,-,N/A,,Clear,330,2012-10-28 08:55:00
4:15 AM,41.0,37.4,87,30.17,10.0,NNW,3.5,-,N/A,,Clear,330,2012-10-28 09:15:00
4:35 AM,41.0,37.4,87,30.18,10.0,NNW,4.6,-,N/A,,Clear,330,2012-10-28 09:35:00
4:55 AM,41.0,37.4,87,30.18,10.0,NNW,3.5,-,N/A,,Clear,330,2012-10-28 09:55:00
5:15 AM,41.0,37.4,87,30.18,10.0,NNW,3.5,-,N/A,,Clear,330,2012-10-28 10:15:00
5:35 AM,39.2,37.4,93,30.17,10.0,Calm,Calm,-,N/A,,Clear,0,2012-10-28 10:35:00
5:55 AM,39.2,39.2,100,30.18,10.0,NW,3.5,-,N/A,,Clear,320,2012-10-28 10:55:00
6:15 AM,39.2,39.2,100,30.18,10.0,NW,3.5,-,N/A,,Clear,320,2012-10-28 11:15:00
6:35 AM,39.2,39.2,100,30.19,10.0,NNW,4.6,-,N/A,,Clear,330,2012-10-28 11:35:00
6:55 AM,39.2,39.2,100,30.20,10.0,NW,4.6,-,N/A,,Clear,320,2012-10-28 11:55:00
7:15 AM,37.4,37.4,100,30.20,10.0,NW,3.5,-,N/A,,Clear,320,2012-10-28 12:15:00
7:35 AM,37.4,37.4,100,30.20,10.0,NW,3.5,-,N/A,,Clear,310,2012-10-28 12:35:00
7:55 AM,39.2,39.2,100,30.21,10.0,NNW,3.5,-,N/A,,Clear,330,2012-10-28 12:55:00
8:15 AM,41.0,39.2,93,30.21,10.0,NNW,3.5,-,N/A,,Clear,330,2012-10-28 13:15:00
8:35 AM,42.8,39.2,87,30.23,10.0,NNW,5.8,-,N/A,,Clear,340,2012-10-28 13:35:00
8:55 AM,44.6,39.2,81,30.23,10.0,NNW,4.6,-,N/A,,Clear,340,2012-10-28 13:55:00
9:35 AM,48.2,39.2,71,30.24,10.0,North,8.1,-,N/A,,Clear,360,2012-10-28 14:35:00
9:55 AM,50.0,39.2,66,30.24,10.0,NNW,6.9,-,N/A,,Clear,340,2012-10-28 14:55:00
10:15 AM,51.8,37.4,58,30.23,10.0,NNW,5.8,-,N/A,,Clear,340,2012-10-28 15:15:00
10:35 AM,53.6,35.6,51,30.23,10.0,North,9.2,-,N/A,,Clear,350,2012-10-28 15:35:00
10:55 AM,55.4,33.8,44,30.23,10.0,North,10.4,-,N/A,,Clear,360,2012-10-28 15:55:00
11:15 AM,57.2,33.8,41,30.22,10.0,North,12.7,17.3,N/A,,Clear,350,2012-10-28 16:15:00
11:35 AM,59.0,32.0,36,30.22,10.0,North,12.7,16.1,N/A,,Clear,350,2012-10-28 16:35:00
11:55 AM,59.0,32.0,36,30.22,10.0,NNW,12.7,18.4,N/A,,Clear,340,2012-10-28 16:55:00
12:15 PM,60.8,33.8,36,30.21,10.0,North,8.1,-,N/A,,Clear,350,2012-10-28 17:15:00
12:35 PM,60.8,33.8,36,30.20,10.0,North,9.2,-,N/A,,Clear,350,2012-10-28 17:35:00
12:55 PM,60.8,33.8,36,30.20,10.0,NW,9.2,17.3,N/A,,Clear,320,2012-10-28 17:55:00
1:15 PM,62.6,33.8,34,30.19,10.0,NW,8.1,16.1,N/A,,Clear,310,2012-10-28 18:15:00
1:35 PM,62.6,33.8,34,30.18,10.0,North,11.5,18.4,N/A,,Clear,350,2012-10-28 18:35:00
1:55 PM,62.6,33.8,34,30.17,10.0,North,10.4,16.1,N/A,,Clear,350,2012-10-28 18:55:00
2:15 PM,64.4,33.8,32,30.16,10.0,NNW,11.5,-,N/A,,Clear,340,2012-10-28 19:15:00
2:35 PM,64.4,32.0,30,30.15,10.0,North,13.8,-,N/A,,Clear,350,2012-10-28 19:35:00
2:55 PM,64.4,33.8,32,30.14,10.0,North,13.8,18.4,N/A,,Clear,350,2012-10-28 19:55:00
3:15 PM,64.4,32.0,30,30.13,10.0,NNW,11.5,18.4,N/A,,Clear,330,2012-10-28 20:15:00
3:35 PM,64.4,33.8,32,30.13,10.0,North,9.2,16.1,N/A,,Clear,350,2012-10-28 20:35:00
3:55 PM,64.4,32.0,30,30.13,10.0,North,11.5,17.3,N/A,,Clear,10,2012-10-28 20:55:00
4:15 PM,64.4,32.0,30,30.13,10.0,NNW,11.5,-,N/A,,Clear,340,2012-10-28 21:15:00
4:35 PM,64.4,32.0,30,30.13,10.0,NNW,8.1,17.3,N/A,,Clear,340,2012-10-28 21:35:00
4:55 PM,64.4,32.0,30,30.13,10.0,North,9.2,-,N/A,,Clear,10,2012-10-28 21:55:00
5:15 PM,64.4,30.2,28,30.13,10.0,North,10.4,-,N/A,,Clear,10,2012-10-28 22:15:00
5:35 PM,62.6,28.4,27,30.13,10.0,North,8.1,-,N/A,,Clear,10,2012-10-28 22:35:00
5:55 PM,60.8,30.2,31,30.14,10.0,North,6.9,-,N/A,,Clear,10,2012-10-28 22:55:00
6:15 PM,60.8,30.2,31,30.15,10.0,North,4.6,-,N/A,,Clear,360,2012-10-28 23:15:00
6:35 PM,59.0,30.2,34,30.16,10.0,North,4.6,-,N/A,,Clear,350,2012-10-28 23:35:00
6:55 PM,55.4,32.0,41,30.16,10.0,Calm,Calm,-,N/A,,Clear,0,2012-10-28 23:55:00
7:15 PM,55.4,32.0,41,30.17,10.0,North,3.5,-,N/A,,Clear,350,2012-10-29 00:15:00
7:35 PM,53.6,32.0,44,30.18,10.0,NNW,3.5,-,N/A,,Clear,340,2012-10-29 00:35:00
7:55 PM,53.6,32.0,44,30.18,10.0,NNW,3.5,-,N/A,,Clear,330,2012-10-29 00:55:00
8:15 PM,51.8,33.8,50,30.19,10.0,NNW,3.5,-,N/A,,Clear,330,2012-10-29 01:15:00
8:55 PM,50.0,33.8,54,30.21,10.0,North,3.5,-,N/A,,Clear,350,2012-10-29 01:55:00
9:15 PM,50.0,33.8,54,30.21,10.0,Calm,Calm,-,N/A,,Clear,0,2012-10-29 02:15:00
9:35 PM,50.0,35.6,58,30.21,10.0,North,4.6,-,N/A,,Clear,360,2012-10-29 02:35:00
9:55 PM,50.0,35.6,58,30.22,10.0,North,4.6,-,N/A,,Clear,350,2012-10-29 02:55:00
10:15 PM,50.0,35.6,58,30.22,10.0,North,4.6,-,N/A,,Clear,350,2012-10-29 03:15:00
10:35 PM,48.2,37.4,66,30.22,10.0,North,3.5,-,N/A,,Clear,350,2012-10-29 03:35:00
10:55 PM,48.2,35.6,62,30.23,10.0,Calm,Calm,-,N/A,,Clear,0,2012-10-29 03:55:00
11:15 PM,46.4,37.4,71,30.22,10.0,NNW,3.5,-,N/A,,Clear,330,2012-10-29 04:15:00
11:55 PM,41.0,41.0,100,30.23,10.0,Calm,Calm,-,N/A,,Clear,0,2012-10-29 04:55:00